Location: Unspecified
(0.0000°N, 0.0000°E)
Time: 16:29:11
(UTC+02:00)

Cosmos 773 Rocket - Visible Passes

Search period start: 27 March 2017 00:00
Search period end: 06 April 2017 00:00
Orbit: 745 x 777 km, 74.1° (Epoch: 24 March)

Date Brightness Start Highest point End Pass type
(mag) Time Alt. Az. Time Alt. Az. Time Alt. Az.
27 Mar 5.4 07:36:32 10° S 07:41:33 44° ESE 07:46:32 10° NNE visible
28 Mar 6.8 06:58:43 10° SSE 07:02:35 21° ESE 07:06:26 10° NE visible
29 Mar 6.9 20:33:15 10° WNW 20:36:33 17° WSW 20:39:52 10° SW visible
30 Mar 4.3 07:21:01 10° S 07:26:18 75° ESE 07:31:34 10° NNE visible
31 Mar 5.7 06:42:35 10° SSE 06:47:20 34° ESE 06:52:04 10° NE visible
01 Apr 6.8 06:05:14 10° SE 06:08:22 16° ESE 06:11:30 10° ENE visible
02 Apr 4.0 07:05:48 10° SSW 07:11:03 66° WNW 07:16:17 10° N visible
03 Apr 4.6 06:26:54 10° S 06:32:06 57° ESE 06:37:16 10° NNE visible
04 Apr 6.0 05:48:45 10° SSE 05:53:08 26° ESE 05:57:30 10° NE visible
04 Apr 5.4 07:31:13 10° WSW 07:34:45 18° WNW 07:38:17 10° NW visible
05 Apr 6.9 05:12:49 11° ESE 05:14:09 12° ESE 05:16:07 10° E visible
05 Apr 4.4 06:53:05 23° SW 06:55:48 39° WNW 07:00:41 10° N visible
